CAPE
0 0 0 0 0 0 0 0 0 0 0 0 0 0 0 0 0 0 0 0 0 0 0 0 0 0 0 0 0 0 0 0 0 0 0 0 83 519 667 645 654 835 682
0 47 0 0 0 0 0 0 0 0 0 0 0 0 0 0 0 0 0 0 0 0 0 0 0 0 0 0 0 0 0 0 0 0 0 0 0 3 345 457 431 880 758
0 32 0 0 0 0 0 0 0 0 0 0 0 0 0 0 0 0 0 0 0 0 0 0 0 0 0 0 0 0 0 0 0 0 0 0 0 0 0 61 809 634 562
0 5 0 0 0 0 0 0 0 0 0 0 0 0 0 0 0 0 0 0 0 0 0 0 0 0 0 0 0 0 0 0 0 0 0 0 0 0 0 0 112 275 454
0 0 0 0 0 0 0 0 0 0 0 0 0 0 0 0 0 0 0 0 0 0 0 0 0 0 0 0 0 0 0 0 0 0 0 0 0 0 0 15 142 563 378
0 0 0 0 0 0 0 0 0 0 0 0 0 0 0 0 0 0 0 0 0 0 0 0 28 34 49 67 73 55 44 29 76 9 0 0 0 0 10 63 244 630 683
0 35 0 0 0 0 0 0 0 0 0 0 0 0 0 0 0 0 0 0 0 4 13 16 71 132 195 303 274 327 264 282 157 91 126 59 0 0 68 484 454 205 466
0 18 0 37 0 0 0 0 0 0 0 0 0 0 0 0 0 0 0 0 22 67 104 140 207 230 351 193 81 79 141 131 12 39 198 177 23 0 132 746 664 355 480
36 26 7 46 20 0 30 0 0 0 0 0 0 0 0 0 0 0 0 0 11 64 148 279 314 437 395 269 235 145 40 28 0 2 42 267 90 47 138 594 718 680 468
58 89 4 6 145 19 51 47 6 0 0 0 0 0 16 19 7 0 0 4 23 92 234 333 431 598 516 300 254 128 119 106 41 85 38 158 242 281 230 457 732 705 595
10 14 11 0 68 139 119 272 191 76 1 0 1 14 42 49 63 34 21 32 90 172 268 447 657 722 635 419 282 162 176 189 127 39 24 136 302 443 448 494 635 839 653
51 50 0 0 0 47 7 95 359 245 172 79 63 131 133 119 146 72 91 70 168 239 280 494 740 888 747 515 325 177 168 140 27 25 0 79 221 417 608 598 586 824 429
58 81 35 0 0 10 30 42 107 317 260 281 204 263 262 228 231 195 149 180 209 310 235 349 570 864 809 678 384 285 197 128 0 0 16 3 41 248 450 532 648 876 658
0 0 62 76 28 34 45 39 56 103 197 157 200 310 218 315 256 165 166 103 329 222 325 507 624 903 1068 965 581 314 297 197 70 37 64 2 53 239 525 520 598 874 742
0 0 0 24 44 70 57 49 69 63 100 139 160 307 243 153 268 222 197 122 187 288 324 429 678 999 1025 1089 837 439 339 338 286 188 260 54 75 239 550 836 827 769 793
0 0 0 0 6 48 32 76 96 102 96 175 181 225 328 177 267 239 197 206 109 42 67 283 495 891 1036 930 947 513 429 473 428 338 314 247 68 192 228 417 699 910 970
0 0 0 0 0 0 3 18 74 121 123 163 213 242 298 280 301 240 135 127 62 138 88 159 211 704 985 765 898 529 492 587 524 398 360 187 125 6 25 137 369 537 943
0 0 0 0 0 0 0 1 37 129 139 195 250 259 322 339 300 288 186 114 90 170 87 115 87 845 903 632 700 597 547 630 508 173 349 292 186 132 52 126 244 176 711
0 0 0 0 0 0 0 5 76 133 159 241 323 325 389 388 349 347 277 218 95 75 50 72 176 843 627 522 662 587 620 450 403 166 102 265 296 201 205 253 58 174 357
0 0 0 0 0 0 0 5 85 294 369 428 445 459 452 519 501 477 400 303 231 83 46 53 529 715 680 772 549 565 654 538 404 255 234 224 241 329 400 649 479 310 185
0 0 0 0 0 0 0 0 29 152 465 547 614 640 647 738 657 562 542 393 256 80 64 243 795 726 609 207 449 252 307 421 378 304 288 306 348 317 391 556 446 653 298
0 0 0 0 0 0 0 0 216 397 354 408 689 786 842 826 716 726 654 297 128 185 554 726 569 558 620 209 89 67 104 245 236 331 292 151 89 217 267 455 671 712 664
0 0 0 0 0 0 0 39 212 394 377 505 738 854 846 867 796 772 553 380 501 874 821 632 618 543 97 1 3 198 106 95 101 184 279 218 162 109 282 385 511 505 573
0 0 0 0 0 0 0 56 196 317 309 622 745 1009 968 1022 948 696 594 756 903 930 756 622 360 160 73 36 2 5 0 27 91 91 152 65 87 137 265 315 400 75 310
0 0 0 0 0 0 7 127 259 334 566 748 895 1079 1154 1128 980 762 890 903 804 593 605 720 265 20 2 189 109 26 5 47 52 108 142 67 0 186 412 67 228 523 628
0 0 0 0 44 149 201 354 487 534 656 921 1127 1191 1115 1036 917 710 448 425 558 577 611 476 364 108 2 75 50 28 50 83 172 108 88 104 60 45 93 35 286 161 212
CIN
0 0 0 0 0 0 0 0 0 0 0 0 0 0 0 0 0 0 0 0 0 0 0 0 0 0 0 0 0 0 0 0 0 0 0 0 -120 -43 -34 -33 -29 -1 -9
0 -661 -1 0 0 0 0 0 0 0 0 0 0 0 0 0 0 0 0 0 0 0 0 0 0 0 0 0 0 0 0 0 0 0 0 0 0 -4 -64 -58 -52 -1 -8
0 -619 0 0 0 0 0 0 0 0 0 0 0 0 0 0 0 0 0 0 0 0 0 0 0 0 0 0 0 0 0 0 0 0 0 0 0 0 0 -98 -14 -10 -9
-119 -576 0 0 0 0 0 0 0 0 0 0 0 0 0 0 0 0 0 0 0 0 0 0 0 0 0 0 0 0 0 0 0 0 0 0 0 0 0 0 -96 -20 -6
-162 0 0 0 0 0 0 0 0 0 0 0 0 0 0 0 0 0 0 0 0 0 0 0 0 0 0 0 0 0 0 0 0 0 0 0 0 0 0 -165 -53 -16 -17
0 0 0 0 0 0 0 0 0 0 0 0 0 0 0 0 0 0 0 0 0 0 0 0 -348 -289 -238 -195 -157 -140 -103 -69 -59 -58 0 0 0 0 -204 -108 -49 -20 -9
0 -565 0 0 0 0 0 0 0 0 0 0 0 0 0 0 0 0 0 0 0 -115 -435 -389 -292 -227 -181 -131 -115 -79 -59 -28 -29 -37 -27 -87 0 0 -149 -22 -20 -46 -33
-126 -554 0 -673 0 0 0 0 0 0 0 0 0 0 0 0 0 0 0 0 -529 -436 -355 -305 -248 -210 -145 -194 -260 -219 -149 -120 -65 -104 -14 -22 -159 0 -96 -14 -13 -24 -26
-467 -515 -653 -582 -689 0 -673 -104 0 0 0 0 0 0 0 0 0 0 0 0 -522 -416 -322 -254 -222 -146 -144 -183 -200 -228 -271 -245 0 -46 -133 -7 -100 -169 -89 -17 -11 -11 -12
-460 -482 -601 -642 -556 -630 -648 -666 -683 -32 0 0 0 0 -612 -615 -647 0 0 -543 -463 -397 -285 -226 -177 -103 -106 -164 -179 -246 -236 -221 -205 -125 -170 -48 -42 -42 -48 -15 -13 -11 -11
-450 -513 -614 0 -594 -602 -587 -581 -635 -659 -187 -88 -213 -613 -603 -542 -522 -530 -525 -476 -401 -344 -278 -178 -98 -73 -76 -111 -150 -192 -181 -147 -178 -187 -173 -94 -39 -19 -24 -11 -12 -10 -14
-213 -299 0 0 0 -581 -621 -625 -563 -558 -584 -647 -625 -574 -556 -518 -479 -496 -459 -447 -346 -291 -249 -153 -71 -34 -54 -70 -107 -159 -127 -161 -89 -164 0 -138 -75 -23 -6 -12 -15 -11 -20
-155 -245 -316 0 -297 -586 -560 -604 -616 -556 -578 -562 -578 -549 -493 -474 -468 -456 -425 -347 -313 -250 -231 -186 -95 -34 -27 -33 -70 -87 -109 -150 0 0 -119 -226 -161 -62 -26 -23 -15 -9 -13
0 0 -256 -394 -468 -515 -522 -569 -622 -588 -594 -604 -612 -560 -575 -502 -514 -495 -445 -372 -270 -255 -223 -154 -102 -46 -3 -1 -39 -63 -63 -83 -118 -113 -72 -181 -102 -48 -26 -31 -21 -11 -13
0 0 0 -334 -344 -367 -462 -552 -591 -583 -612 -604 -637 -614 -617 -591 -519 -475 -428 -392 -310 -266 -283 -188 -97 -4 -4 0 -2 -41 -28 -30 -37 -39 -13 -72 -61 -30 -16 -7 -10 -9 -12
0 0 0 0 -205 -380 -417 -491 -504 -634 -646 -660 -668 -652 -593 -605 -538 -520 -446 -386 -379 -390 -322 -225 -119 -17 -7 -4 0 -21 -20 -11 -11 -14 -5 -5 -52 -28 -20 -14 -9 -6 -9
0 0 0 0 0 0 -411 -501 -580 -593 -696 -652 -652 -666 -617 -567 -521 -495 -461 -437 -440 -366 -355 -309 -198 -46 -13 -13 -2 -12 -13 -13 -7 -14 -14 -10 -5 -37 -48 -31 -19 -12 -3
0 0 0 0 0 0 0 -158 -572 -650 -689 -701 -644 -648 -604 -570 -542 -488 -459 -457 -440 -355 -375 -305 -231 -12 -25 -12 -5 -7 -6 -13 -18 -35 -7 -9 -7 -14 -33 -33 -26 -26 -7
0 0 0 0 0 0 0 -354 -604 -653 -715 -669 -639 -613 -557 -523 -509 -457 -424 -417 -452 -399 -375 -282 -163 -19 -18 -13 -11 -13 -16 -19 -27 -42 -39 -7 -9 -16 -7 -14 -32 -29 -19
0 0 0 0 0 0 0 -340 -636 -657 -646 -635 -603 -558 -526 -476 -452 -399 -359 -357 -330 -377 -325 -274 -52 -22 -11 -1 -12 -9 -7 -12 -22 -22 -19 -6 -5 -10 -13 -12 -9 -6 -23
0 0 0 0 0 0 0 0 -603 -589 -631 -589 -532 -488 -443 -388 -387 -360 -279 -310 -301 -321 -284 -124 -13 -8 -4 -35 -8 -14 -13 -11 -13 -18 -23 -4 -4 -9 -12 -11 -5 -1 -5
0 0 0 0 0 0 0 0 -604 -568 -660 -617 -476 -417 -377 -338 -344 -290 -244 -324 -327 -224 -39 -14 -26 -16 -6 -22 -9 -6 0 -2 -12 -4 -5 -22 -37 -18 -10 -7 -11 -15 -7
0 0 0 0 0 0 0 -698 -665 -645 -619 -544 -439 -375 -341 -296 -277 -238 -271 -265 -139 -16 -19 -36 -30 -17 -39 0 0 0 -2 0 -1 -2 -2 -13 -17 -30 -23 -9 -18 -25 -23
0 0 0 0 0 0 0 -561 -482 -303 -281 -363 -389 -291 -280 -223 -198 -235 -221 -100 -32 -27 -30 -36 -45 -47 -55 -15 0 -22 0 -13 0 -1 -5 -33 -33 -23 -13 -12 -12 -43 -32
0 0 0 0 0 0 -673 -571 -450 -362 -358 -371 -324 -257 -200 -169 -170 -181 -89 -41 -39 -44 -37 -18 -44 -139 0 0 -1 -9 0 -6 -26 -5 -1 -19 0 -3 -2 -48 -16 -9 -19
0 0 0 0 -525 -605 -606 -528 -428 -364 -341 -291 -247 -197 -175 -158 -140 -126 -131 -97 -47 -44 -30 -27 -16 -18 0 -11 -7 -3 -3 -3 -2 -4 -6 -6 -7 -29 -37 -59 -20 -57 -52
Wind_Speed
19 20 21 21 20 21 22 22 22 21 21 21 21 20 20 20 19 19 19 19 19 19 20 19 18 17 16 15 15 16 16 17 18 18 19 18 18 16 15 13 10 9 7
18 19 19 20 20 19 20 21 20 19 19 19 19 19 19 18 18 18 18 18 19 20 20 21 20 20 18 17 16 16 16 16 17 19 19 19 18 18 17 17 12 9 6
16 18 18 18 18 19 18 19 19 18 17 16 17 17 17 17 17 17 17 17 17 18 19 20 21 21 20 19 17 17 17 17 17 18 19 19 19 19 18 19 16 11 8
16 16 16 17 17 17 17 17 17 16 15 15 14 14 14 15 15 15 15 16 16 17 17 19 20 20 20 20 19 18 17 17 17 17 18 18 19 19 20 20 20 16 15
13 14 14 16 15 15 15 15 15 14 13 13 13 13 12 12 13 13 13 14 14 15 16 17 18 18 19 19 19 19 18 17 17 16 17 18 19 18 22 23 23 21 7
12 12 13 15 14 13 13 13 13 12 12 11 11 11 11 11 11 11 11 11 12 13 14 15 16 17 17 18 19 19 18 18 17 17 17 17 19 20 23 25 25 25 20
11 9 10 13 12 12 12 11 10 10 10 9 9 9 9 8 8 9 9 9 9 10 11 12 13 14 15 17 19 19 20 19 19 18 18 18 18 21 23 25 24 19 19
9 10 10 10 9 9 8 5 5 6 8 7 7 7 6 6 6 6 7 7 7 7 9 10 11 13 14 17 19 20 20 19 20 20 19 18 18 20 22 23 19 16 19
6 4 4 6 7 5 3 1 2 3 4 6 5 4 4 4 3 3 4 5 5 6 7 8 9 11 14 16 17 19 19 19 20 20 18 17 16 19 22 21 20 20 19
3 1 0 1 3 3 3 2 2 3 3 5 5 5 3 2 1 0 2 3 4 5 5 7 8 10 12 15 17 18 18 19 20 21 18 16 18 19 20 22 20 21 21
6 4 2 2 3 3 2 3 4 5 5 6 6 6 5 5 4 3 4 4 3 4 5 7 8 10 11 14 15 16 18 20 21 20 18 16 18 20 19 21 22 21 21
4 4 3 5 6 6 6 6 6 7 7 7 6 7 7 6 7 6 5 5 5 6 7 8 8 10 10 14 15 14 19 21 21 20 18 18 18 19 19 21 23 23 20
9 8 8 8 7 8 9 9 9 9 9 9 9 8 8 9 9 8 8 8 7 7 9 9 9 9 10 12 13 14 18 20 20 19 19 17 17 18 20 20 23 23 19
16 14 14 11 11 11 12 13 13 12 12 12 12 11 10 10 10 8 9 8 7 7 10 10 11 9 13 11 11 13 16 18 19 20 20 17 16 17 19 20 21 22 20
22 22 19 14 12 13 14 15 14 15 14 15 14 13 12 12 12 10 10 8 7 8 9 8 9 11 11 11 12 13 15 17 18 20 21 20 18 17 18 19 21 22 20
25 24 22 16 17 19 18 17 16 16 16 15 14 13 13 12 12 11 10 10 9 9 8 8 11 13 12 12 12 13 15 18 18 19 21 22 20 19 18 19 22 22 20
27 24 23 25 25 22 20 18 17 17 15 14 14 14 12 12 12 11 10 11 10 10 10 12 13 14 15 14 13 14 16 18 19 20 22 21 24 21 22 22 24 22 21
29 28 31 32 30 24 20 19 19 16 15 15 14 12 11 11 10 10 10 10 10 10 9 11 13 13 14 13 14 14 17 19 19 21 21 22 23 23 23 22 23 25 17
35 39 40 35 32 25 21 20 18 16 16 15 13 11 10 10 10 9 9 9 9 9 9 11 12 13 13 14 14 17 18 19 20 20 20 21 23 24 23 22 23 21 13
43 42 38 36 30 25 23 19 16 15 15 13 12 11 10 9 9 9 10 8 7 8 9 9 9 10 12 15 16 16 18 19 20 18 19 20 20 22 22 22 19 17 16
40 39 38 33 28 24 23 17 16 16 13 12 11 9 8 9 7 8 7 6 5 6 5 5 8 9 11 14 16 18 16 14 13 12 14 15 16 20 21 22 20 19 18
41 42 38 35 31 26 20 16 16 11 12 11 9 7 5 5 6 4 4 3 4 6 5 4 7 12 12 12 15 14 15 14 11 11 15 16 15 20 20 21 20 21 21
41 38 37 36 31 24 15 12 11 10 12 11 8 6 5 5 3 3 3 4 5 4 4 6 8 9 13 13 9 12 12 12 13 13 13 16 17 20 20 20 21 20 21
39 34 34 33 27 19 12 10 8 10 10 11 6 5 5 3 3 3 4 5 4 5 6 7 8 8 10 9 8 6 11 13 11 11 13 15 18 21 20 21 22 22 24
36 34 34 25 20 15 12 9 8 8 10 8 6 4 5 4 4 4 5 4 5 6 7 8 8 8 8 7 7 8 6 9 11 14 12 14 16 21 20 20 20 20 23
32 28 19 16 14 11 7 7 4 5 6 5 4 5 5 6 6 5 5 5 6 7 7 8 9 7 7 8 7 7 7 7 6 10 13 14 12 19 18 16 20 18 21
Wind_Direction
130 121 121 118 109 104 100 102 104 101 100 99 96 93 86 82 77 72 65 59 53 47 42 38 31 25 18 10 1 352 342 333 322 317 315 317 315 314 314 317 325 330 348
111 119 121 121 113 107 102 101 102 101 101 101 97 92 87 82 75 70 65 60 57 53 49 46 41 34 25 16 7 357 349 342 331 318 311 308 309 306 303 301 310 317 328
109 117 123 122 119 112 109 106 103 101 102 101 95 90 87 84 77 69 63 59 54 49 45 43 40 37 34 30 21 10 356 345 339 328 318 309 303 301 301 296 294 300 297
110 115 120 124 122 114 113 112 108 100 101 102 95 91 86 81 75 71 63 56 52 47 45 41 39 37 35 33 26 17 7 359 349 336 325 315 304 298 295 290 285 289 275
107 114 118 127 123 117 113 115 112 104 102 105 100 97 89 80 76 71 63 55 50 47 44 40 38 37 34 29 25 19 11 3 354 346 331 317 308 299 290 286 280 282 310
108 117 123 129 128 124 120 118 113 111 110 108 106 109 103 90 82 75 67 57 48 44 47 42 37 36 34 26 17 13 8 3 356 347 336 326 307 297 289 284 280 275 277
107 113 122 139 137 132 128 125 121 120 122 118 120 119 113 106 95 85 73 63 60 49 48 45 38 33 30 22 10 3 359 356 348 340 332 327 318 296 289 286 284 282 279
108 121 125 142 141 140 131 112 110 127 134 130 133 132 124 118 104 85 75 69 61 53 46 41 35 29 25 14 6 0 357 359 348 334 326 324 321 302 291 288 287 287 283
88 106 118 136 150 145 132 104 130 151 152 156 154 151 152 142 116 75 65 62 49 36 30 30 30 22 18 10 5 3 358 356 350 339 327 322 322 310 293 290 286 282 282
41 33 148 171 159 172 171 208 234 203 197 186 189 197 211 215 196 88 22 18 22 17 12 13 15 12 11 6 4 1 0 354 347 339 331 321 311 310 299 287 288 281 278
327 326 317 258 262 252 257 273 257 237 226 224 220 215 232 277 283 298 312 335 342 347 352 355 360 3 4 0 3 4 357 353 347 342 335 324 308 302 301 290 283 283 277
303 279 263 285 273 286 285 291 275 269 249 239 235 230 232 265 292 294 301 308 317 328 336 340 347 351 357 354 357 2 352 347 347 343 338 321 310 301 297 292 282 280 277
307 307 286 293 286 284 288 292 288 283 267 261 249 253 258 281 292 290 307 306 311 312 323 326 332 337 342 349 350 354 349 346 346 343 339 329 316 304 294 291 283 278 277
314 307 304 287 282 287 293 287 285 278 274 269 267 259 261 273 277 276 289 296 297 306 308 316 323 324 326 333 340 344 344 342 341 336 332 326 320 309 297 289 284 279 276
308 311 310 304 291 289 288 292 283 277 275 271 270 262 253 262 280 279 284 278 276 289 305 307 314 325 330 327 328 335 336 337 334 330 324 315 315 310 302 290 282 280 277
301 306 305 307 303 302 295 286 281 284 280 277 271 267 257 262 276 273 272 267 266 280 291 305 314 320 319 324 322 328 330 330 329 325 319 305 303 303 297 290 280 278 273
298 299 302 304 306 302 294 288 286 282 283 281 279 276 266 263 277 280 275 269 262 283 296 308 311 313 316 319 319 325 325 323 322 317 311 305 293 294 286 283 275 275 271
295 297 300 303 305 303 297 295 294 283 286 291 290 286 274 272 277 284 284 272 277 287 291 304 310 310 312 317 321 321 321 320 319 316 308 299 292 286 284 278 273 268 272
291 293 296 302 304 304 302 304 301 289 291 296 296 290 285 284 286 288 293 293 288 291 289 304 310 311 316 319 322 322 320 318 316 314 308 296 287 283 280 278 270 272 269
289 290 293 300 305 307 308 309 306 300 298 299 298 291 292 293 291 296 305 306 306 304 298 305 312 322 324 325 329 327 324 320 315 313 301 296 289 281 277 272 271 270 268
287 289 293 299 304 310 311 305 303 296 300 303 301 297 296 299 297 302 311 318 317 311 310 317 330 332 334 336 333 327 328 325 322 316 312 303 291 277 277 268 265 264 266
285 284 287 294 300 308 311 302 309 312 312 315 312 310 306 305 309 312 320 332 343 338 335 339 343 342 341 341 335 341 341 342 335 318 304 293 287 276 274 264 259 257 256
286 284 285 290 295 302 308 308 315 323 331 326 320 323 321 322 331 337 344 350 349 355 353 348 345 344 342 343 347 351 359 356 356 342 306 290 280 268 270 262 254 253 254
281 284 284 287 293 299 295 297 295 311 323 329 340 343 343 3 21 13 11 352 7 1 351 348 351 355 355 5 9 16 357 356 3 1 322 293 276 263 264 259 250 249 252
280 282 285 291 295 296 286 285 293 317 327 347 356 11 14 31 26 12 5 19 7 353 349 356 5 6 1 17 31 23 37 14 3 335 332 293 277 257 258 254 253 252 252
280 283 287 291 298 300 289 287 294 325 337 357 12 26 40 25 8 10 22 12 2 356 2 7 6 20 36 22 29 53 71 55 61 342 326 298 277 251 254 262 246 255 251